"Pseudo-MPEC" for P12gyaQ

Created 2025 Oct 18 0:35:15 UT using Find_Orb

Click here for an explanation of pseudo-MPECs

 
 Astrometry: 
     P12gyaQ* C2025 10 15.53916404 42 46.226-06 16 10.74   ~AFGZ 21.45wXNEOCPF51
     P12gyaQ  C2025 10 15.55133404 42 45.982-06 16 10.37   ~AFGZ 21.42wXNEOCPF51
     P12gyaQ  C2025 10 15.56352204 42 45.771-06 16 09.74   ~AFGZ 21.30wXNEOCPF51
     P12gyaQ  C2025 10 15.57584304 42 45.539-06 16 09.34   ~AFGZ 21.23wXNEOCPF51
     P12gyaQ |C2025 10 16.22108004 42 34.600-06 15 38.90   ~AG6Z 21.2 GVNEOCP807
     P12gyaQ |C2025 10 16.22661004 42 34.500-06 15 38.60   ~AG6Z 21.2 GVNEOCP807
     P12gyaQ |C2025 10 16.23213304 42 34.390-06 15 38.60   ~AG6Z 21.0 GVNEOCP807
     P12gyaQ |C2025 10 17.24181004 42 15.320-06 14 51.10   ~AH6Z 20.9 GVNEOCP807
     P12gyaQ |C2025 10 17.24733004 42 15.220-06 14 50.60   ~AH6Z 21.0 GVNEOCP807
     P12gyaQ |C2025 10 17.25285004 42 15.100-06 14 50.30   ~AH6Z 20.8 GVNEOCP807

Station data:
(807) Cerro Tololo Observatory, La Serena  (S30.169133 W70.805900)  Chile.
   Observer R. Holmes. 0.61-m f/6.5 astrograph + CCD.
(F51) Pan-STARRS 1, Haleakala  (N20.707234 W156.255910)  US/Hawaii.
   Observers J. Herman, T. Lowe, P. Minguez, A. Schultz, I. Smith. Measurers
   K. Chambers, T. de Boer, J. Fairlamb, H. Gao, M. Huber, C.-C. Lin, E.
   Magnier, Y. Ramanjooloo, R. Wainscoat, R. Weryk. 1.8-m Ritchey-Chrétien +
   CCD.

Orbital elements:  P12gyaQ
   Perihelion 2026 Apr 9.532167 +/- 130 TT = 12:46:19.2 (JD 2461140.032167)
Epoch 2025 Oct 17.0 TT = JDT 2460965.5   Earth MOID: 0.6102   Ju: 0.8960
M 345.535805209 +/- 17              (J2000 ecliptic)             AutoNEOCP
n   0.082874091 +/- 0.055           Peri.   60.187269 +/- 56
a   5.210229600 +/- 2.31            Node    74.966173 +/- 6
e   0.73483997 +/- 0.215            Incl.   39.533060 +/- 5.3
P  11.89283                H 17.24  G  0.15   U 10.8  SR
q 1.381544624 +/- 0.335    Q 9.038914577 +/- 9.43
From 10 observations 2025 Oct. 15-17 (41.1 hr); mean residual 0".35
Residuals in arcseconds: 
251015 F51  .17+  .02-    251016 807  .86-  .08+    251017 807  .41+  .04+    
251015 F51  .11-  .10-    251016 807  .75-  .15+    251017 807  .41+  .07+    
251015 F51  .11+  .08+    251016 807  .79-  .08-    
251015 F51  .06+  .02+    251017 807  .12+  .18-    

Ephemerides (geocentric):
Date (UTC) HH   RA             Dec           delta  r     elong  mag " sig PA
---- --------  ------------   ------------  ------ ------ -----  --- --------
2025 10 18 01  04 41 58.496   -06 14 08.96  1.6563 2.4193 129.9 21.2 2.71  86
2025 10 18 02  04 41 57.590   -06 14 06.50  1.6556 2.4189 129.9 21.2 2.86  85
2025 10 18 03  04 41 56.681   -06 14 04.02  1.6549 2.4186 130.0 21.2 3.02  85
2025 10 18 04  04 41 55.768   -06 14 01.52  1.6542 2.4182 130.0 21.2 3.19  85
2025 10 18 05  04 41 54.851   -06 13 59.01  1.6535 2.4179 130.0 21.2 3.35  84
2025 10 18 06  04 41 53.930   -06 13 56.48  1.6528 2.4176 130.1 21.2 3.53  84
2025 10 18 07  04 41 53.006   -06 13 53.94  1.6521 2.4172 130.1 21.2 3.70  84
2025 10 18 08  04 41 52.077   -06 13 51.38  1.6514 2.4169 130.1 21.2 3.88  83
2025 10 18 09  04 41 51.146   -06 13 48.80  1.6507 2.4165 130.2 21.2 4.07  83
2025 10 18 10  04 41 50.210   -06 13 46.21  1.6500 2.4162 130.2 21.2 4.26  83
2025 10 18 11  04 41 49.271   -06 13 43.60  1.6493 2.4159 130.2 21.2 4.45  83
2025 10 18 12  04 41 48.328   -06 13 40.97  1.6486 2.4155 130.3 21.2 4.64  82
2025 10 18 13  04 41 47.381   -06 13 38.33  1.6479 2.4152 130.3 21.2 4.84  82
2025 10 18 14  04 41 46.430   -06 13 35.66  1.6472 2.4148 130.4 21.2 5.05  82
2025 10 18 15  04 41 45.476   -06 13 32.99  1.6466 2.4145 130.4 21.2 5.25  82
2025 10 18 16  04 41 44.518   -06 13 30.29  1.6459 2.4142 130.4 21.2 5.47  81
2025 10 18 17  04 41 43.556   -06 13 27.58  1.6452 2.4138 130.5 21.2 5.68  81
2025 10 18 18  04 41 42.591   -06 13 24.85  1.6445 2.4135 130.5 21.2 5.90  81
2025 10 18 19  04 41 41.621   -06 13 22.11  1.6438 2.4131 130.5 21.2 6.13  81
2025 10 18 20  04 41 40.648   -06 13 19.34  1.6431 2.4128 130.6 21.2 6.35  81
2025 10 18 21  04 41 39.671   -06 13 16.56  1.6424 2.4125 130.6 21.2 6.59  81
2025 10 18 22  04 41 38.691   -06 13 13.77  1.6417 2.4121 130.6 21.2 6.82  81
2025 10 18 23  04 41 37.707   -06 13 10.95  1.6410 2.4118 130.7 21.2 7.06  80
2025 10 19 00  04 41 36.718   -06 13 08.12  1.6403 2.4114 130.7 21.2 7.30  80
2025 10 19 01  04 41 35.727   -06 13 05.27  1.6396 2.4111 130.8 21.2 7.55  80
2025 10 19 02  04 41 34.731   -06 13 02.41  1.6389 2.4108 130.8 21.2 7.80  80
2025 10 19 03  04 41 33.731   -06 12 59.53  1.6382 2.4104 130.8 21.2 8.06  80
2025 10 19 04  04 41 32.728   -06 12 56.63  1.6375 2.4101 130.9 21.2 8.32  80
2025 10 19 05  04 41 31.721   -06 12 53.71  1.6369 2.4097 130.9 21.2 8.58  80
2025 10 19 06  04 41 30.711   -06 12 50.77  1.6362 2.4094 130.9 21.2 8.85  80
2025 10 19 07  04 41 29.696   -06 12 47.82  1.6355 2.4091 131.0 21.2 9.12  79
2025 10 19 08  04 41 28.678   -06 12 44.85  1.6348 2.4087 131.0 21.2 9.40  79
2025 10 19 09  04 41 27.656   -06 12 41.86  1.6341 2.4084 131.1 21.2 9.68  79
2025 10 19 10  04 41 26.630   -06 12 38.86  1.6334 2.4080 131.1 21.2 9.96  79
2025 10 19 11  04 41 25.600   -06 12 35.83  1.6327 2.4077 131.1 21.2 10.3  79
2025 10 19 12  04 41 24.567   -06 12 32.79  1.6320 2.4074 131.2 21.2 10.5  79
2025 10 19 13  04 41 23.530   -06 12 29.73  1.6313 2.4070 131.2 21.2 10.8  79
2025 10 19 14  04 41 22.488   -06 12 26.66  1.6306 2.4067 131.2 21.1 11.1  79
2025 10 19 15  04 41 21.444   -06 12 23.56  1.6300 2.4063 131.3 21.1 11.4  79
2025 10 19 16  04 41 20.395   -06 12 20.45  1.6293 2.4060 131.3 21.1 11.8  79
2025 10 19 17  04 41 19.343   -06 12 17.32  1.6286 2.4057 131.3 21.1 12.1  79
2025 10 19 18  04 41 18.286   -06 12 14.17  1.6279 2.4053 131.4 21.1 12.4  78
2025 10 19 19  04 41 17.226   -06 12 11.01  1.6272 2.4050 131.4 21.1 12.7  78
2025 10 19 20  04 41 16.162   -06 12 07.82  1.6265 2.4046 131.5 21.1 13.0  78
2025 10 19 21  04 41 15.095   -06 12 04.62  1.6258 2.4043 131.5 21.1 13.4  78
2025 10 19 22  04 41 14.023   -06 12 01.40  1.6251 2.4040 131.5 21.1 13.7  78
2025 10 19 23  04 41 12.948   -06 11 58.16  1.6245 2.4036 131.6 21.1 14.0  78
2025 10 20 00  04 41 11.869   -06 11 54.91  1.6238 2.4033 131.6 21.1 14.4  78